Flag for U.S.A. Weather past 2 weeks in Myrtle Beach, South Carolina, U.S.A.

Now
79 °F

Clear.


Feels Like: 81 °F
Forecast: 75 / 90 °F
Wind: 9 mph from Southwest

Location: Myrtle Beach Air Force Base

Current Time: Jun 30, 2015 at 1:36:35 AM

Latest Report: Jun 30, 2015 at 1:15 AM


Visibility: 10 mi

Pressure: 30.00 "Hg

Humidity: 70%

Dew point: 68 °F

Location of Myrtle BeachLocation

Historic Weather in Myrtle Beach — Graph

°F

Myrtle Beach temperature yesterday

Maximum temperature yesterday: 88 °F (at 11:45 AM)
Minimum temperature yesterday: 75 °F (at 12:35 AM)
Average temperature yesterday: 79 °F

Past Weeks' High & Low Weather Summary

 TemperatureHumidityPressure
High99 °F (Jun 15, 1:45 PM)89% (Jun 24, 11:35 PM)30.14 "Hg (Jun 24, 11:35 PM)
Low73 °F (Jun 24, 11:35 PM)37% (Jun 15, 12:47 PM)29.83 "Hg (Jun 27, 5:47 PM)
Average83 °F71%30.03 "Hg
* Reported Jun 15 12:15 AM — Jun 30 12:55 AM, Myrtle Beach, Weather by CustomWeather, © 2015

Note: Actual official high and low records may vary slightly from our data, if they occured in-between our weather recording intervals... More about our weather records

Advertising

Myrtle Beach weather history for previous 24 hours

 ConditionsComfort  
Time TempWeatherWind HumidityBarometerVisibility
12:55 AM
Tue, Jun 30
79 °FClear.7 mph65%30.00 "Hg10 mi
12:15 AM79 °FClear.6 mph70%30.00 "Hg10 mi
11:55 PM
Mon, Jun 29
79 °FClear.7 mph70%30.00 "Hg10 mi
11:35 PM79 °FClear.6 mph70%30.00 "Hg10 mi
9:45 PM81 °FClear.10 mph70%29.99 "Hg10 mi
8:45 PM82 °FSunny.12 mph62%29.97 "Hg10 mi
7:45 PM84 °FSunny.14 mph58%29.96 "Hg10 mi
3:45 PM88 °FScattered clouds.13 mph59%29.97 "Hg10 mi
2:45 PM88 °FScattered clouds.13 mph55%29.97 "Hg10 mi
1:45 PM86 °FScattered clouds.13 mph59%29.98 "Hg10 mi
12:45 PM84 °FScattered clouds.9 mph62%29.99 "Hg10 mi
11:45 AM88 °FScattered clouds.7 mph55%29.99 "Hg10 mi
10:45 AM84 °FScattered clouds.9 mph55%29.99 "Hg10 mi
9:45 AM82 °FSunny.9 mph66%29.98 "Hg10 mi
8:45 AM81 °FPassing clouds.6 mph70%29.99 "Hg10 mi
7:45 AM77 °FPartly sunny.6 mph83%29.98 "Hg10 mi
6:50 AM75 °FPassing clouds.6 mph89%29.96 "Hg10 mi
5:55 AM75 °FOvercast.5 mph89%29.95 "Hg10 mi
5:35 AM75 °FOvercast.5 mph89%29.94 "Hg10 mi
5:15 AM75 °FOvercast.5 mph89%29.93 "Hg10 mi
4:55 AM75 °FMostly cloudy.3 mph89%29.94 "Hg10 mi
4:35 AM75 °FMostly cloudy.3 mph89%29.93 "Hg10 mi
4:15 AM75 °FOvercast.5 mph89%29.93 "Hg10 mi
3:55 AM75 °FOvercast.6 mph89%29.93 "Hg10 mi
3:35 AM75 °FOvercast.6 mph89%29.93 "Hg10 mi
3:15 AM75 °FOvercast.7 mph89%29.93 "Hg10 mi
2:55 AM75 °FOvercast.5 mph89%29.94 "Hg10 mi
2:35 AM75 °FOvercast.No wind89%29.94 "Hg10 mi
1:55 AM75 °FOvercast.No wind83%29.95 "Hg10 mi
1:35 AM75 °FPassing clouds.No wind83%29.96 "Hg10 mi
1:15 AM75 °FPassing clouds.No wind83%29.96 "Hg10 mi
Weather by CustomWeather, © 2015

See weather overviewHow to use our weather pages